METEOR-M2 3

Last updated on Thu Dec 18 2025 00:02:23 GMT+0000 (Coordinated Universal Time)

1 57166U 23091A 25351.60992882 .00000001 00000+0 19555-4 0 9999 2 57166 98.6374 45.0641 0003627 354.5136 5.6003 14.24026622128676
UTC large
Height (km)
Speed (km/s)
/
Latitude / Longitude
Inclination (degrees)
Orbital Period (minutes)
Azimuth
Elevation
Range (km)
Doppler Factor

Next 0 passes for location: London (51.5072 / 0.1276)

Sorry there are no passes over London.